TimeEST,TemperatureF,Dew PointF,Humidity,Sea Level PressureIn,VisibilityMPH,Wind Direction,Wind SpeedMPH,Gust SpeedMPH,PrecipitationIn,Events,Conditions,WindDirDegrees,DateUTC
12:56 AM,61.0,59.0,93,29.91,8.0,Calm,Calm,-,N/A,,Overcast,0,2012-12-17 05:56:00
1:56 AM,63.0,61.0,93,29.91,10.0,WSW,6.9,-,0.02,Rain,Light Rain,240,2012-12-17 06:56:00
2:56 AM,62.1,60.1,93,29.90,5.0,West,12.7,-,0.06,Rain,Rain,270,2012-12-17 07:56:00
3:56 AM,63.0,61.0,93,29.88,10.0,West,4.6,-,0.06,Rain,Light Rain,260,2012-12-17 08:56:00
4:04 AM,62.6,60.8,94,29.86,10.0,WSW,4.6,-,N/A,,Overcast,240,2012-12-17 09:04:00
4:12 AM,62.6,60.8,94,29.86,10.0,Calm,Calm,-,N/A,,Overcast,0,2012-12-17 09:12:00
4:34 AM,62.6,60.8,94,29.85,10.0,Calm,Calm,-,N/A,,Overcast,0,2012-12-17 09:34:00
4:56 AM,61.0,60.1,97,29.86,4.0,Calm,Calm,-,N/A,,Overcast,0,2012-12-17 09:56:00
5:00 AM,60.8,60.8,100,29.84,2.5,Calm,Calm,-,N/A,,Overcast,0,2012-12-17 10:00:00
5:03 AM,60.8,60.8,100,29.84,1.8,Calm,Calm,-,N/A,,Overcast,0,2012-12-17 10:03:00
5:14 AM,60.8,60.8,100,29.84,1.5,Calm,Calm,-,N/A,,Overcast,0,2012-12-17 10:14:00
5:45 AM,60.8,60.8,100,29.84,3.0,Calm,Calm,-,N/A,,Overcast,0,2012-12-17 10:45:00
5:56 AM,61.0,60.1,97,29.85,4.0,NE,3.5,-,N/A,,Overcast,40,2012-12-17 10:56:00
6:02 AM,60.8,60.8,100,29.84,2.5,ENE,3.5,-,N/A,,Overcast,60,2012-12-17 11:02:00
6:11 AM,60.8,59.0,94,29.84,1.0,Calm,Calm,-,N/A,,Overcast,0,2012-12-17 11:11:00
6:18 AM,60.8,57.2,88,29.84,0.5,NE,4.6,-,N/A,Fog,Fog,50,2012-12-17 11:18:00
6:35 AM,59.0,57.2,94,29.84,0.5,East,4.6,-,N/A,Fog,Fog,80,2012-12-17 11:35:00
6:42 AM,59.0,57.2,94,29.84,0.8,East,4.6,-,0.00,Rain,Light Rain,80,2012-12-17 11:42:00
6:49 AM,59.0,57.2,94,29.83,1.2,East,4.6,-,0.00,Rain,Light Rain,80,2012-12-17 11:49:00
6:56 AM,59.0,57.9,96,29.85,1.5,East,3.5,-,0.00,Rain,Light Rain,90,2012-12-17 11:56:00
7:35 AM,60.8,57.2,88,29.83,1.0,ESE,3.5,-,0.02,Rain,Light Rain,110,2012-12-17 12:35:00
7:47 AM,60.8,59.0,94,29.83,0.8,North,3.5,-,0.02,Rain,Light Rain,360,2012-12-17 12:47:00
7:56 AM,60.1,59.0,96,29.84,1.2,North,4.6,-,0.02,Rain,Light Rain,350,2012-12-17 12:56:00
8:05 AM,60.8,59.0,94,29.82,0.8,Calm,Calm,-,0.00,Rain,Light Rain,0,2012-12-17 13:05:00
8:11 AM,60.8,59.0,94,29.82,1.0,Calm,Calm,-,0.01,Rain,Light Rain,0,2012-12-17 13:11:00
8:25 AM,60.8,59.0,94,29.83,0.8,Calm,Calm,-,0.01,Rain,Light Rain,0,2012-12-17 13:25:00
8:37 AM,60.8,59.0,94,29.82,0.5,Calm,Calm,-,0.01,Fog-Rain,Light Rain,0,2012-12-17 13:37:00
8:49 AM,60.8,59.0,94,29.82,0.5,Calm,Calm,-,0.01,Fog-Rain,Light Rain,0,2012-12-17 13:49:00
8:56 AM,60.1,59.0,96,29.84,0.5,North,3.5,-,0.02,Fog-Rain,Light Rain,10,2012-12-17 13:56:00
9:11 AM,60.8,59.0,94,29.83,0.2,Calm,Calm,-,0.00,Fog,Fog,0,2012-12-17 14:11:00
9:36 AM,60.8,60.8,100,29.82,0.5,Calm,Calm,-,0.00,Fog,Fog,0,2012-12-17 14:36:00
9:46 AM,62.6,60.8,94,29.82,1.0,Calm,Calm,-,0.00,,Mist,0,2012-12-17 14:46:00
9:56 AM,63.0,62.1,97,29.84,2.5,Calm,Calm,-,0.00,,Overcast,0,2012-12-17 14:56:00
10:04 AM,64.4,62.6,94,29.82,4.0,Calm,Calm,-,N/A,,Overcast,0,2012-12-17 15:04:00
10:37 AM,64.4,62.6,94,29.83,9.0,SW,5.8,-,N/A,,Overcast,230,2012-12-17 15:37:00
10:56 AM,64.9,63.0,93,29.85,9.0,SW,5.8,-,N/A,,Overcast,220,2012-12-17 15:56:00
11:43 AM,62.6,60.8,94,29.82,9.0,NW,13.8,-,N/A,,Overcast,310,2012-12-17 16:43:00
11:50 AM,62.6,60.8,94,29.83,8.0,NW,11.5,23.0,0.00,Rain,Light Rain,320,2012-12-17 16:50:00
11:56 AM,61.0,59.0,93,29.84,7.0,NNW,11.5,-,0.00,Rain,Light Rain,330,2012-12-17 16:56:00
12:46 PM,60.8,59.0,94,29.80,7.0,NNW,8.1,-,0.00,,Overcast,340,2012-12-17 17:46:00
12:56 PM,62.1,59.0,90,29.81,8.0,North,6.9,-,0.00,,Overcast,350,2012-12-17 17:56:00
1:37 PM,60.8,59.0,94,29.80,8.0,NNW,5.8,-,N/A,,Overcast,340,2012-12-17 18:37:00
1:45 PM,60.8,59.0,94,29.80,8.0,NNW,5.8,-,N/A,,Overcast,330,2012-12-17 18:45:00
1:56 PM,61.0,59.0,93,29.81,8.0,WNW,3.5,-,N/A,,Mostly Cloudy,300,2012-12-17 18:56:00
2:14 PM,62.6,59.0,88,29.78,9.0,Calm,Calm,-,N/A,,Mostly Cloudy,0,2012-12-17 19:14:00
2:23 PM,62.6,57.2,82,29.77,9.0,Calm,Calm,-,N/A,,Mostly Cloudy,0,2012-12-17 19:23:00
2:56 PM,62.1,59.0,90,29.80,6.0,West,5.8,-,N/A,,Overcast,260,2012-12-17 19:56:00
3:37 PM,62.6,59.0,88,29.80,8.0,SW,5.8,-,N/A,,Overcast,230,2012-12-17 20:37:00
3:56 PM,62.1,59.0,90,29.82,8.0,WSW,6.9,-,0.00,Rain,Light Rain,250,2012-12-17 20:56:00
4:56 PM,61.0,59.0,93,29.80,9.0,West,3.5,-,0.00,,Clear,260,2012-12-17 21:56:00
7:56 PM,60.1,59.0,96,29.82,6.0,SW,3.5,-,0.02,Rain,Light Rain,230,2012-12-18 00:56:00
8:56 PM,60.1,57.9,93,29.81,5.0,SW,5.8,-,0.09,Rain,Rain,220,2012-12-18 01:56:00
9:56 PM,60.1,57.9,93,29.81,7.0,SSW,9.2,-,0.06,Rain,Light Rain,200,2012-12-18 02:56:00
10:56 PM,60.1,57.0,90,29.73,10.0,SSE,12.7,-,0.04,Rain,Light Rain,150,2012-12-18 03:56:00
11:56 PM,60.1,57.0,90,29.67,10.0,South,8.1,-,0.00,,Mostly Cloudy,170,2012-12-18 04:56:00